This demonstration page uses our WeatherBlox Daily Observations layout. Learn more.

Left ArrowRight Arrow

34.74481, -87.66753

Hourly Observations for August 11, 2022

Temp ( °F °C ) Dew Point ( °F °C ) Humidity (%) Winds ( mph kmh ) Pressure ( in mb ) Visibility ( mi km ) Precip ( " mm )
12:53 am 00:53 Clear 72 22.2 70 21.1 93 93 Calm 30.09 1019 7 11 0.00 0.00
1:10 am 01:10 Clear with Mist and Fog 72 22.2 70 21.1 93 93 Calm 30.08 1019 3 4 0.00 0.00
1:18 am 01:18 Clear with Mist and Fog 72 22.2 71 21.7 97 97 Calm 30.08 1019 6 10 0.00 0.00
1:53 am 01:53 Clear with Mist and Fog 71 21.7 70 21.1 96 96 Calm 30.08 1019 3 5 0.00 0.00
1:56 am 01:56 Clear with Mist and Fog 72 22.2 70 21.1 93 93 Calm 30.07 1018 2 3 0.00 0.00
2:19 am 02:19 Clear with Mist and Fog 72 22.2 71 21.7 97 97 Calm 30.07 1018 3 5 0.00 0.00
2:32 am 02:32 Clear with Mist and Fog 72 22.2 70 21.1 93 93 Calm 30.07 1018 2 3 0.00 0.00
2:53 am 02:53 Clear 71 21.7 70 21.1 96 96 SSE 5 7 30.07 1018 7 11 0.00 0.00
3:53 am 03:53 Mostly Cloudy 72 22.2 70 21.1 93 93 Calm 30.06 1018 9 14 0.00 0.00
4:13 am 04:13 Mostly Cloudy 72 22.2 70 21.1 93 93 Calm 30.06 1018 7 11 0.00 0.00
4:53 am 04:53 Mostly Clear with Mist and Fog 72 22.2 70 21.1 93 93 Calm 30.05 1018 6 10 0.00 0.00
5:36 am 05:36 Mostly Cloudy 71 21.7 70 21.1 96 96 Calm 30.06 1018 9 14 0.00 0.00
5:53 am 05:53 Partly Cloudy 72 22.2 70 21.1 93 93 SSE 3 6 30.06 1018 10 16 0.00 0.00
6:53 am 06:53 Sunny with Mist and Fog 71 21.7 70 21.1 96 96 Calm 30.07 1018 6 10 0.00 0.00
7:00 am 07:00 Partly Cloudy 72 22.2 70 21.1 93 93 Calm 30.07 1018 7 11 0.00 0.00
7:08 am 07:08 Mostly Cloudy 72 22.2 71 21.7 97 97 Calm 30.08 1019 8 13 0.00 0.00
7:53 am 07:53 Cloudy 74 23.3 72 22.2 94 94 SSW 3 6 30.07 1018 9 14 0.00 0.00
8:53 am 08:53 Cloudy 76 24.4 72 22.2 88 88 Calm 30.08 1019 10 16 0.00 0.00
9:53 am 09:53 Cloudy 79 26.1 73 22.8 82 82 Calm 30.09 1019 10 16 0.00 0.00
10:16 am 10:16 Mostly Cloudy 80 26.7 73 22.8 79 79 VRB 3 6 30.08 1019 10 16 0.00 0.00
10:53 am 10:53 Partly Cloudy 82 27.8 72 22.2 72 72 VRB 5 7 30.08 1019 10 16 0.00 0.00
11:00 am 11:00 Mostly Cloudy 82 27.8 72 22.2 72 72 E 3 6 30.07 1018 10 16 0.00 0.00
11:29 am 11:29 Partly Cloudy 83 28.3 72 22.2 70 70 E 5 7 30.06 1018 10 16 0.00 0.00
11:53 am 11:53 Mostly Sunny 85 29.4 73 22.8 68 68 ENE 5 7 30.06 1018 10 16 0.00 0.00
12:53 pm 12:53 Mostly Sunny 86 30 72 22.2 63 63 E 6 9 30.05 1018 10 16 0.00 0.00
1:53 pm 13:53 Sunny 89 31.7 71 21.7 56 56 VRB 5 7 30.03 1017 10 16 0.00 0.00
2:53 pm 14:53 Mostly Sunny 90 32.2 70 21.1 52 52 SE 5 7 30.00 1016 10 16 0.00 0.00
3:53 pm 15:53 Cloudy 81 27.2 73 22.8 77 77 NNE 7 11 30.00 1016 10 16 0.00 0.00
4:53 pm 16:53 Mostly Cloudy 83 28.3 73 22.8 72 72 NNW 6 9 29.99 1016 10 16 0.00 0.00
5:53 pm 17:53 Sunny 85 29.4 73 22.8 68 68 VRB 3 6 29.98 1015 10 16 0.00 0.00
6:53 pm 18:53 Mostly Sunny 84 28.9 75 23.9 74 74 NNE 3 6 29.98 1015 10 16 0.00 0.00
7:53 pm 19:53 Mostly Clear 81 27.2 75 23.9 82 82 Calm 30.00 1016 10 16 0.00 0.00
8:53 pm 20:53 Mostly Cloudy 79 26.1 75 23.9 88 88 NNW 3 6 30.02 1017 10 16 0.00 0.00
9:53 pm 21:53 Cloudy 79 26.1 75 23.9 88 88 Calm 30.04 1017 10 16 0.00 0.00
10:53 pm 22:53 Partly Cloudy 78 25.6 75 23.9 90 90 Calm 30.02 1017 10 16 0.00 0.00
11:53 pm 23:53 Mostly Cloudy 78 25.6 74 23.3 87 87 Calm 30.02 1017 10 16 0.00 0.00

Powered by AerisWeather